TimeCST,TemperatureF,Dew PointF,Humidity,Sea Level PressureIn,VisibilityMPH,Wind Direction,Wind SpeedMPH,Gust SpeedMPH,PrecipitationIn,Events,Conditions,WindDirDegrees,DateUTC
12:55 AM,35.6,28.2,75,30.19,10.0,NW,11.5,-,N/A,,Clear,320,2013-01-17 06:55:00
1:55 AM,33.6,29.7,85,30.22,10.0,NNW,9.2,-,N/A,,Clear,340,2013-01-17 07:55:00
2:55 AM,33.4,31.6,93,30.25,10.0,NNW,10.4,-,N/A,,Clear,340,2013-01-17 08:55:00
3:55 AM,32.4,32.2,99,30.27,10.0,NNW,9.2,-,N/A,,Clear,340,2013-01-17 09:55:00
4:55 AM,31.5,31.3,99,30.30,10.0,NNW,9.2,-,N/A,,Clear,340,2013-01-17 10:55:00
5:55 AM,30.2,30.0,99,30.33,10.0,NNW,9.2,-,N/A,,Clear,340,2013-01-17 11:55:00
6:31 AM,30.2,30.2,100,30.35,10.0,NNW,8.1,-,N/A,,Mostly Cloudy,340,2013-01-17 12:31:00
6:55 AM,30.9,30.9,100,30.37,10.0,NNW,9.2,-,N/A,,Mostly Cloudy,340,2013-01-17 12:55:00
7:20 AM,32.0,32.0,100,30.39,10.0,NNW,15.0,-,N/A,,Overcast,340,2013-01-17 13:20:00
7:55 AM,31.3,31.1,99,30.40,10.0,North,15.0,-,N/A,,Overcast,350,2013-01-17 13:55:00
8:55 AM,30.6,30.4,99,30.43,10.0,North,10.4,-,N/A,,Overcast,360,2013-01-17 14:55:00
9:55 AM,32.4,31.5,96,30.47,10.0,North,12.7,-,N/A,,Mostly Cloudy,10,2013-01-17 15:55:00
10:32 AM,32.0,30.2,93,30.49,10.0,NNE,13.8,-,N/A,,Scattered Clouds,20,2013-01-17 16:32:00
10:55 AM,34.5,30.9,87,30.48,10.0,North,11.5,-,N/A,,Scattered Clouds,360,2013-01-17 16:55:00
11:55 AM,36.5,28.6,73,30.47,10.0,NNW,8.1,-,N/A,,Clear,340,2013-01-17 17:55:00
1:55 PM,40.5,28.6,63,30.44,10.0,North,9.2,-,N/A,,Clear,10,2013-01-17 19:55:00
2:55 PM,41.4,28.6,60,30.44,10.0,North,4.6,-,N/A,,Clear,350,2013-01-17 20:55:00
3:55 PM,41.4,27.9,59,30.45,10.0,NNE,5.8,-,N/A,,Clear,20,2013-01-17 21:55:00
4:55 PM,40.5,27.9,61,30.46,10.0,Calm,Calm,-,N/A,,Clear,0,2013-01-17 22:55:00
5:55 PM,35.4,28.2,75,30.47,10.0,Calm,Calm,-,N/A,,Clear,0,2013-01-17 23:55:00
6:55 PM,32.5,27.9,83,30.48,10.0,Calm,Calm,-,N/A,,Clear,0,2013-01-18 00:55:00
7:55 PM,28.8,27.3,94,30.48,10.0,South,4.6,-,N/A,,Clear,170,2013-01-18 01:55:00
8:55 PM,30.9,27.9,88,30.49,10.0,SSE,3.5,-,N/A,,Clear,160,2013-01-18 02:55:00
9:55 PM,29.7,27.7,92,30.48,10.0,South,6.9,-,N/A,,Clear,180,2013-01-18 03:55:00
10:55 PM,28.8,27.0,93,30.47,10.0,South,6.9,-,N/A,,Clear,170,2013-01-18 04:55:00
11:55 PM,27.5,25.9,94,30.46,10.0,South,8.1,-,N/A,,Clear,180,2013-01-18 05:55:00